Time,TemperatureF,DewpointF,PressureIn,WindDirection,WindDirectionDegrees,WindSpeedMPH,WindSpeedGustMPH,Humidity,HourlyPrecipIn,Conditions,Clouds,dailyrainin,SoftwareType,DateUTC
2013-07-28 00:01:00,71.1,70.5,29.91,NE,46,0.0,0.0,98,0.00,,,0.17,LWC V2.00 B2112,2013-07-28 04:01:00,
2013-07-28 00:02:00,71.1,70.5,29.91,NE,46,0.0,0.0,98,0.00,,,0.17,LWC V2.00 B2112,2013-07-28 04:02:00,
2013-07-28 00:06:00,71.1,70.8,29.91,NE,46,0.0,0.0,99,0.00,,,0.17,LWC V2.00 B2112,2013-07-28 04:06:00,
2013-07-28 00:11:00,71.1,70.5,29.91,NE,46,0.0,0.0,98,0.00,,,0.17,LWC V2.00 B2112,2013-07-28 04:11:00,
2013-07-28 00:16:00,71.1,70.5,29.91,NE,46,0.0,0.0,98,0.00,,,0.17,LWC V2.00 B2112,2013-07-28 04:16:00,
2013-07-28 00:21:00,70.9,70.3,29.91,NE,46,0.0,0.0,98,0.00,,,0.17,LWC V2.00 B2112,2013-07-28 04:21:00,
2013-07-28 00:26:00,70.9,70.6,29.91,NE,46,0.0,0.0,99,0.00,,,0.17,LWC V2.00 B2112,2013-07-28 04:26:00,
2013-07-28 00:31:00,70.9,70.6,29.91,NE,46,0.0,0.0,99,0.00,,,0.17,LWC V2.00 B2112,2013-07-28 04:31:00,
2013-07-28 00:36:00,71.1,70.8,29.91,NE,46,0.0,0.0,99,0.00,,,0.17,LWC V2.00 B2112,2013-07-28 04:36:00,
2013-07-28 00:41:00,71.1,70.8,29.91,NE,46,0.0,0.0,99,0.00,,,0.17,LWC V2.00 B2112,2013-07-28 04:41:00,
2013-07-28 00:46:00,71.1,70.8,29.91,NE,46,0.0,0.0,99,0.00,,,0.17,LWC V2.00 B2112,2013-07-28 04:46:00,
2013-07-28 00:51:00,71.1,70.8,29.91,NE,46,0.0,0.0,99,0.00,,,0.17,LWC V2.00 B2112,2013-07-28 04:51:00,
2013-07-28 00:56:00,71.1,70.8,29.91,NE,46,0.0,0.0,99,0.00,,,0.18,LWC V2.00 B2112,2013-07-28 04:56:00,
2013-07-28 01:01:00,71.1,70.8,29.91,NE,46,0.0,0.0,99,0.00,,,0.18,LWC V2.00 B2112,2013-07-28 05:01:00,
2013-07-28 01:06:00,71.1,70.8,29.91,NE,46,0.0,0.0,99,0.00,,,0.18,LWC V2.00 B2112,2013-07-28 05:06:00,
2013-07-28 01:11:00,71.1,70.8,29.90,NE,46,0.0,0.0,99,0.00,,,0.18,LWC V2.00 B2112,2013-07-28 05:11:00,
2013-07-28 01:16:00,71.1,70.8,29.90,NE,46,0.0,0.0,99,0.00,,,0.18,LWC V2.00 B2112,2013-07-28 05:16:00,
2013-07-28 01:21:00,70.9,70.6,29.90,NE,46,0.0,0.0,99,0.00,,,0.18,LWC V2.00 B2112,2013-07-28 05:21:00,
2013-07-28 01:26:00,70.9,70.6,29.90,NE,46,0.0,0.0,99,0.00,,,0.18,LWC V2.00 B2112,2013-07-28 05:26:00,
2013-07-28 01:31:00,70.9,70.6,29.90,NE,46,0.0,0.0,99,0.00,,,0.18,LWC V2.00 B2112,2013-07-28 05:31:00,
2013-07-28 01:36:00,70.8,70.5,29.90,NE,46,0.0,0.0,99,0.00,,,0.18,LWC V2.00 B2112,2013-07-28 05:36:00,
2013-07-28 01:41:00,70.8,70.5,29.89,NE,46,0.0,0.0,99,0.00,,,0.18,LWC V2.00 B2112,2013-07-28 05:41:00,
2013-07-28 01:46:00,70.8,70.5,29.89,NE,46,0.0,0.0,99,0.00,,,0.18,LWC V2.00 B2112,2013-07-28 05:46:00,
2013-07-28 01:51:00,70.9,70.6,29.89,NE,46,0.0,0.0,99,0.00,,,0.18,LWC V2.00 B2112,2013-07-28 05:51:00,
2013-07-28 01:56:00,70.9,70.6,29.89,NE,46,0.0,0.0,99,0.00,,,0.18,LWC V2.00 B2112,2013-07-28 05:56:00,
2013-07-28 02:01:00,70.9,70.6,29.89,NE,46,0.0,0.0,99,0.00,,,0.18,LWC V2.00 B2112,2013-07-28 06:01:00,
2013-07-28 02:06:00,70.9,70.6,29.89,NE,46,0.0,0.0,99,0.00,,,0.18,LWC V2.00 B2112,2013-07-28 06:06:00,
2013-07-28 02:11:00,70.9,70.6,29.88,NE,46,0.0,0.0,99,0.00,,,0.18,LWC V2.00 B2112,2013-07-28 06:11:00,
2013-07-28 02:16:00,70.9,70.6,29.88,NE,46,0.0,0.0,99,0.00,,,0.18,LWC V2.00 B2112,2013-07-28 06:16:00,
2013-07-28 02:21:00,70.9,70.6,29.88,NE,46,0.0,0.0,99,0.00,,,0.18,LWC V2.00 B2112,2013-07-28 06:21:00,
2013-07-28 02:26:00,70.9,70.6,29.88,NE,46,0.0,0.0,99,0.00,,,0.18,LWC V2.00 B2112,2013-07-28 06:26:00,
2013-07-28 02:31:00,70.9,70.6,29.88,NE,46,0.0,0.0,99,0.00,,,0.18,LWC V2.00 B2112,2013-07-28 06:31:00,
2013-07-28 02:36:00,70.8,70.5,29.88,NE,46,0.0,0.0,99,0.00,,,0.18,LWC V2.00 B2112,2013-07-28 06:36:00,
2013-07-28 02:41:00,70.8,70.5,29.89,NE,46,0.0,0.0,99,0.00,,,0.18,LWC V2.00 B2112,2013-07-28 06:41:00,
2013-07-28 02:46:00,70.8,70.5,29.89,NE,46,0.0,0.0,99,0.00,,,0.18,LWC V2.00 B2112,2013-07-28 06:46:00,
2013-07-28 02:51:00,70.6,70.3,29.89,NE,46,0.0,0.0,99,0.00,,,0.18,LWC V2.00 B2112,2013-07-28 06:51:00,
2013-07-28 02:56:00,70.6,70.3,29.89,NE,46,0.0,0.0,99,0.00,,,0.18,LWC V2.00 B2112,2013-07-28 06:56:00,
2013-07-28 03:01:00,70.6,70.3,29.89,NE,46,0.0,0.0,99,0.00,,,0.18,LWC V2.00 B2112,2013-07-28 07:01:00,
2013-07-28 03:06:00,70.6,70.3,29.89,NE,46,0.0,0.0,99,0.00,,,0.18,LWC V2.00 B2112,2013-07-28 07:06:00,
2013-07-28 03:11:00,70.6,70.3,29.89,NE,46,0.0,0.0,99,0.00,,,0.18,LWC V2.00 B2112,2013-07-28 07:11:00,
2013-07-28 03:16:00,70.6,70.3,29.89,NE,46,0.0,0.0,99,0.00,,,0.18,LWC V2.00 B2112,2013-07-28 07:16:00,
2013-07-28 03:21:00,70.4,70.1,29.89,NE,46,0.0,0.0,99,0.00,,,0.18,LWC V2.00 B2112,2013-07-28 07:21:00,
2013-07-28 03:26:00,70.4,70.1,29.89,NE,46,0.0,0.0,99,0.00,,,0.18,LWC V2.00 B2112,2013-07-28 07:26:00,
2013-07-28 03:31:00,70.4,70.1,29.89,NE,46,0.0,0.0,99,0.00,,,0.18,LWC V2.00 B2112,2013-07-28 07:31:00,
2013-07-28 03:36:00,70.4,70.1,29.89,NE,46,0.0,0.0,99,0.00,,,0.18,LWC V2.00 B2112,2013-07-28 07:36:00,
2013-07-28 03:41:00,70.4,70.1,29.88,NE,46,0.0,0.0,99,0.00,,,0.18,LWC V2.00 B2112,2013-07-28 07:41:00,
2013-07-28 03:46:00,70.4,70.1,29.88,NE,46,0.0,0.0,99,0.00,,,0.18,LWC V2.00 B2112,2013-07-28 07:46:00,
2013-07-28 03:51:00,70.3,70.0,29.88,NE,46,0.0,0.0,99,0.00,,,0.18,LWC V2.00 B2112,2013-07-28 07:51:00,
2013-07-28 03:56:00,70.3,70.0,29.88,NE,46,0.0,0.0,99,0.00,,,0.18,LWC V2.00 B2112,2013-07-28 07:56:00,
2013-07-28 04:01:00,70.3,70.0,29.88,NE,46,0.0,0.0,99,0.00,,,0.18,LWC V2.00 B2112,2013-07-28 08:01:00,
2013-07-28 04:06:00,70.3,70.0,29.88,NE,46,0.0,0.0,99,0.00,,,0.18,LWC V2.00 B2112,2013-07-28 08:06:00,
2013-07-28 04:11:00,70.3,70.0,29.88,NE,46,0.0,0.0,99,0.00,,,0.18,LWC V2.00 B2112,2013-07-28 08:11:00,
2013-07-28 04:16:00,70.1,69.8,29.88,NE,46,0.0,0.0,99,0.00,,,0.18,LWC V2.00 B2112,2013-07-28 08:16:00,
2013-07-28 04:21:00,70.1,70.1,29.88,NE,46,0.0,0.0,100,0.00,,,0.18,LWC V2.00 B2112,2013-07-28 08:21:00,
2013-07-28 04:26:00,70.1,69.8,29.88,NE,46,0.0,0.0,99,0.00,,,0.18,LWC V2.00 B2112,2013-07-28 08:26:00,
2013-07-28 04:31:00,70.1,69.8,29.88,NE,46,0.0,0.0,99,0.00,,,0.18,LWC V2.00 B2112,2013-07-28 08:31:00,
2013-07-28 04:36:00,70.1,69.8,29.88,NE,46,0.0,0.0,99,0.00,,,0.18,LWC V2.00 B2112,2013-07-28 08:36:00,
2013-07-28 04:41:00,69.9,69.6,29.89,NE,46,0.0,0.0,99,0.00,,,0.18,LWC V2.00 B2112,2013-07-28 08:41:00,
2013-07-28 04:46:00,69.9,69.6,29.89,NE,46,0.0,0.0,99,0.00,,,0.18,LWC V2.00 B2112,2013-07-28 08:46:00,
2013-07-28 04:51:00,69.9,69.6,29.89,NE,46,0.0,0.0,99,0.00,,,0.18,LWC V2.00 B2112,2013-07-28 08:51:00,
2013-07-28 04:56:00,69.8,69.5,29.89,NE,46,0.0,0.0,99,0.00,,,0.18,LWC V2.00 B2112,2013-07-28 08:56:00,
2013-07-28 05:01:00,69.8,69.8,29.89,NE,46,0.0,0.0,100,0.00,,,0.18,LWC V2.00 B2112,2013-07-28 09:01:00,
2013-07-28 05:06:00,69.8,69.5,29.89,NE,46,0.0,0.0,99,0.00,,,0.18,LWC V2.00 B2112,2013-07-28 09:06:00,
2013-07-28 05:11:00,69.6,69.3,29.89,NE,46,0.0,0.0,99,0.00,,,0.18,LWC V2.00 B2112,2013-07-28 09:11:00,
2013-07-28 05:16:00,69.6,69.6,29.89,NE,46,0.0,0.0,100,0.00,,,0.18,LWC V2.00 B2112,2013-07-28 09:16:00,
2013-07-28 05:21:00,69.8,69.8,29.89,NE,46,0.0,0.0,100,0.00,,,0.18,LWC V2.00 B2112,2013-07-28 09:21:00,
2013-07-28 05:26:00,69.8,69.8,29.89,NE,46,0.0,0.0,100,0.00,,,0.18,LWC V2.00 B2112,2013-07-28 09:26:00,
2013-07-28 05:31:00,69.8,69.8,29.89,NE,46,0.0,0.0,100,0.00,,,0.18,LWC V2.00 B2112,2013-07-28 09:31:00,
2013-07-28 05:36:00,69.8,69.8,29.89,NE,46,0.0,0.0,100,0.00,,,0.18,LWC V2.00 B2112,2013-07-28 09:36:00,
2013-07-28 05:41:00,69.8,69.8,29.89,NE,46,0.0,0.0,100,0.00,,,0.18,LWC V2.00 B2112,2013-07-28 09:41:00,
2013-07-28 05:46:00,69.6,69.6,29.89,NE,46,0.0,0.0,100,0.00,,,0.18,LWC V2.00 B2112,2013-07-28 09:46:00,
2013-07-28 05:51:00,69.6,69.6,29.89,NE,46,0.0,0.0,100,0.00,,,0.18,LWC V2.00 B2112,2013-07-28 09:51:00,
2013-07-28 05:56:00,69.6,69.6,29.89,NE,46,0.0,0.0,100,0.00,,,0.18,LWC V2.00 B2112,2013-07-28 09:56:00,
2013-07-28 06:01:00,69.6,69.6,29.89,NE,46,0.0,0.0,100,0.00,,,0.18,LWC V2.00 B2112,2013-07-28 10:01:00,
2013-07-28 06:06:00,69.6,69.6,29.89,NE,46,0.0,0.0,100,0.00,,,0.18,LWC V2.00 B2112,2013-07-28 10:06:00,
2013-07-28 06:11:00,69.6,69.6,29.89,NE,46,0.0,0.0,100,0.00,,,0.18,LWC V2.00 B2112,2013-07-28 10:11:00,
2013-07-28 06:16:00,69.6,69.6,29.89,NE,46,0.0,0.0,100,0.00,,,0.18,LWC V2.00 B2112,2013-07-28 10:16:00,
2013-07-28 06:21:00,69.6,69.6,29.89,NE,46,0.0,0.0,100,0.00,,,0.18,LWC V2.00 B2112,2013-07-28 10:21:00,
2013-07-28 06:26:00,69.6,69.6,29.90,NE,46,0.0,0.0,100,0.00,,,0.18,LWC V2.00 B2112,2013-07-28 10:26:00,
2013-07-28 06:31:00,69.6,69.6,29.90,NE,46,0.0,0.0,100,0.00,,,0.18,LWC V2.00 B2112,2013-07-28 10:31:00,
2013-07-28 06:36:00,69.6,69.6,29.90,NE,46,0.0,0.0,100,0.00,,,0.18,LWC V2.00 B2112,2013-07-28 10:36:00,
2013-07-28 06:41:00,69.6,69.6,29.90,NE,46,0.0,0.0,100,0.00,,,0.18,LWC V2.00 B2112,2013-07-28 10:41:00,
2013-07-28 06:46:00,69.6,69.6,29.90,NE,46,0.0,0.0,100,0.00,,,0.18,LWC V2.00 B2112,2013-07-28 10:46:00,
2013-07-28 06:51:00,69.6,69.6,29.90,NE,46,0.0,0.0,100,0.00,,,0.18,LWC V2.00 B2112,2013-07-28 10:51:00,
2013-07-28 06:56:00,69.6,69.6,29.90,NE,46,0.0,0.0,100,0.00,,,0.18,LWC V2.00 B2112,2013-07-28 10:56:00,
2013-07-28 07:01:00,69.6,69.6,29.90,NE,46,0.0,0.0,100,0.00,,,0.18,LWC V2.00 B2112,2013-07-28 11:01:00,
2013-07-28 07:06:00,69.6,69.6,29.90,NE,46,0.0,0.0,100,0.00,,,0.18,LWC V2.00 B2112,2013-07-28 11:06:00,
2013-07-28 07:11:00,69.8,69.8,29.90,NE,46,0.0,0.0,100,0.00,,,0.18,LWC V2.00 B2112,2013-07-28 11:11:00,
2013-07-28 07:16:00,69.8,69.8,29.90,NE,46,0.0,0.0,100,0.00,,,0.18,LWC V2.00 B2112,2013-07-28 11:16:00,
2013-07-28 07:21:00,69.9,69.9,29.90,NE,46,0.0,0.0,100,0.00,,,0.18,LWC V2.00 B2112,2013-07-28 11:21:00,
2013-07-28 07:26:00,69.9,69.9,29.91,NE,46,0.0,0.0,100,0.00,,,0.18,LWC V2.00 B2112,2013-07-28 11:26:00,
2013-07-28 07:31:00,70.1,70.1,29.91,NE,46,0.0,0.0,100,0.00,,,0.18,LWC V2.00 B2112,2013-07-28 11:31:00,
2013-07-28 07:36:00,70.3,70.3,29.91,NE,46,0.0,0.0,100,0.00,,,0.18,LWC V2.00 B2112,2013-07-28 11:36:00,
2013-07-28 07:41:00,70.4,70.4,29.91,NE,46,0.0,0.0,100,0.00,,,0.18,LWC V2.00 B2112,2013-07-28 11:41:00,
2013-07-28 07:46:00,70.4,70.4,29.91,NE,46,0.0,0.0,100,0.00,,,0.18,LWC V2.00 B2112,2013-07-28 11:46:00,
2013-07-28 07:51:00,70.8,70.8,29.91,NE,46,0.0,0.0,100,0.00,,,0.18,LWC V2.00 B2112,2013-07-28 11:51:00,
2013-07-28 07:56:00,70.9,70.9,29.91,NE,46,0.0,0.0,100,0.00,,,0.18,LWC V2.00 B2112,2013-07-28 11:56:00,
2013-07-28 08:01:00,70.9,70.9,29.91,NE,46,0.0,0.0,100,0.00,,,0.18,LWC V2.00 B2112,2013-07-28 12:01:00,
2013-07-28 08:06:00,71.1,71.1,29.91,NE,46,0.0,0.0,100,0.00,,,0.18,LWC V2.00 B2112,2013-07-28 12:06:00,
2013-07-28 08:11:00,71.1,71.1,29.91,NE,46,0.0,0.0,100,0.00,,,0.18,LWC V2.00 B2112,2013-07-28 12:11:00,
2013-07-28 08:16:00,71.3,71.3,29.91,NE,46,0.0,0.0,100,0.00,,,0.18,LWC V2.00 B2112,2013-07-28 12:16:00,
2013-07-28 08:21:00,71.5,71.5,29.91,NE,46,0.0,0.0,100,0.00,,,0.18,LWC V2.00 B2112,2013-07-28 12:21:00,
2013-07-28 08:26:00,71.6,71.6,29.91,NE,46,0.0,0.0,100,0.00,,,0.00,LWC V2.00 B2112,2013-07-28 12:26:00,
2013-07-28 08:31:00,71.6,71.6,29.91,NE,46,0.0,0.0,100,0.00,,,0.00,LWC V2.00 B2112,2013-07-28 12:31:00,
2013-07-28 08:36:00,71.8,71.8,29.91,NE,46,0.0,0.0,100,0.00,,,0.00,LWC V2.00 B2112,2013-07-28 12:36:00,
2013-07-28 08:41:00,72.0,72.0,29.91,NE,46,0.0,0.0,100,0.00,,,0.00,LWC V2.00 B2112,2013-07-28 12:41:00,
2013-07-28 08:46:00,72.0,72.0,29.91,NE,46,0.0,0.0,100,0.00,,,0.00,LWC V2.00 B2112,2013-07-28 12:46:00,
2013-07-28 08:51:00,72.1,72.1,29.91,NE,46,0.0,0.0,100,0.00,,,0.00,LWC V2.00 B2112,2013-07-28 12:51:00,
2013-07-28 08:56:00,72.3,72.3,29.91,NE,46,0.0,1.0,100,0.00,,,0.00,LWC V2.00 B2112,2013-07-28 12:56:00,
2013-07-28 09:01:00,72.3,72.3,29.91,NE,46,0.0,0.0,100,0.00,,,0.00,LWC V2.00 B2112,2013-07-28 13:01:00,
2013-07-28 09:06:00,72.5,72.5,29.91,NE,46,0.0,0.0,100,0.00,,,0.00,LWC V2.00 B2112,2013-07-28 13:06:00,
2013-07-28 09:11:00,72.7,72.7,29.91,NE,46,0.0,0.0,100,0.00,,,0.00,LWC V2.00 B2112,2013-07-28 13:11:00,
2013-07-28 09:16:00,72.8,72.8,29.91,NE,46,0.0,0.0,100,0.00,,,0.00,LWC V2.00 B2112,2013-07-28 13:16:00,
2013-07-28 09:21:00,72.8,72.8,29.91,NE,46,0.0,0.0,100,0.00,,,0.00,LWC V2.00 B2112,2013-07-28 13:21:00,
2013-07-28 09:26:00,72.8,72.8,29.91,NE,46,0.0,0.0,100,0.00,,,0.00,LWC V2.00 B2112,2013-07-28 13:26:00,
2013-07-28 09:31:00,72.8,72.8,29.91,NE,46,0.0,0.0,100,0.00,,,0.00,LWC V2.00 B2112,2013-07-28 13:31:00,
2013-07-28 09:36:00,73.0,73.0,29.91,NE,46,0.0,0.0,100,0.00,,,0.00,LWC V2.00 B2112,2013-07-28 13:36:00,
2013-07-28 09:41:00,73.2,73.2,29.91,NE,46,0.0,0.0,100,0.00,,,0.00,LWC V2.00 B2112,2013-07-28 13:41:00,
2013-07-28 09:46:00,73.2,73.2,29.91,NE,46,0.0,0.0,100,0.00,,,0.00,LWC V2.00 B2112,2013-07-28 13:46:00,
2013-07-28 09:51:00,73.2,73.2,29.91,NE,46,0.0,1.0,100,0.00,,,0.00,LWC V2.00 B2112,2013-07-28 13:51:00,
2013-07-28 09:56:00,73.3,73.3,29.91,NE,46,1.0,3.0,100,0.00,,,0.00,LWC V2.00 B2112,2013-07-28 13:56:00,
2013-07-28 10:01:00,73.3,73.3,29.91,NE,46,0.0,0.0,100,0.00,,,0.00,LWC V2.00 B2112,2013-07-28 14:01:00,
2013-07-28 10:06:00,73.5,73.5,29.91,NE,46,0.0,0.0,100,0.00,,,0.00,LWC V2.00 B2112,2013-07-28 14:06:00,
2013-07-28 10:11:00,73.7,73.7,29.91,NE,46,0.0,0.0,100,0.00,,,0.00,LWC V2.00 B2112,2013-07-28 14:11:00,
2013-07-28 10:16:00,73.9,73.9,29.91,NE,46,0.0,0.0,100,0.00,,,0.00,LWC V2.00 B2112,2013-07-28 14:16:00,
2013-07-28 10:21:00,74.2,73.9,29.91,NE,44,0.0,2.0,99,0.00,,,0.00,LWC V2.00 B2112,2013-07-28 14:21:00,
2013-07-28 10:26:00,74.2,73.9,29.91,NE,44,0.0,0.0,99,0.00,,,0.00,LWC V2.00 B2112,2013-07-28 14:26:00,
2013-07-28 10:31:00,74.2,73.6,29.91,NE,44,0.0,1.0,98,0.00,,,0.00,LWC V2.00 B2112,2013-07-28 14:31:00,
2013-07-28 10:36:00,74.4,73.8,29.91,NE,44,0.0,0.0,98,0.00,,,0.00,LWC V2.00 B2112,2013-07-28 14:36:00,
2013-07-28 10:41:00,74.6,74.0,29.91,NE,44,0.0,0.0,98,0.00,,,0.00,LWC V2.00 B2112,2013-07-28 14:41:00,
2013-07-28 10:46:00,74.6,73.7,29.91,NE,44,0.0,1.0,97,0.00,,,0.00,LWC V2.00 B2112,2013-07-28 14:46:00,
2013-07-28 10:51:00,74.7,73.8,29.91,NE,44,0.0,0.0,97,0.00,,,0.00,LWC V2.00 B2112,2013-07-28 14:51:00,
2013-07-28 10:56:00,74.9,74.0,29.91,NE,44,0.0,0.0,97,0.00,,,0.00,LWC V2.00 B2112,2013-07-28 14:56:00,
2013-07-28 11:01:00,75.1,74.2,29.91,NE,44,0.0,0.0,97,0.00,,,0.00,LWC V2.00 B2112,2013-07-28 15:01:00,
2013-07-28 11:06:00,75.1,74.2,29.91,NE,44,0.0,0.0,97,0.00,,,0.00,LWC V2.00 B2112,2013-07-28 15:06:00,
2013-07-28 11:11:00,75.3,74.1,29.92,NE,44,0.0,0.0,96,0.00,,,0.00,LWC V2.00 B2112,2013-07-28 15:11:00,
2013-07-28 11:16:00,75.4,74.2,29.92,NE,44,0.0,1.0,96,0.00,,,0.00,LWC V2.00 B2112,2013-07-28 15:16:00,
2013-07-28 11:21:00,75.6,74.4,29.92,NE,44,0.0,0.0,96,0.00,,,0.00,LWC V2.00 B2112,2013-07-28 15:21:00,
2013-07-28 11:26:00,76.0,74.5,29.92,NE,44,0.0,0.0,95,0.00,,,0.00,LWC V2.00 B2112,2013-07-28 15:26:00,
2013-07-28 11:31:00,76.0,73.8,29.92,NE,44,0.0,0.0,93,0.00,,,0.00,LWC V2.00 B2112,2013-07-28 15:31:00,
2013-07-28 11:36:00,76.0,73.5,29.92,NE,44,0.0,0.0,92,0.00,,,0.00,LWC V2.00 B2112,2013-07-28 15:36:00,
2013-07-28 11:41:00,76.3,73.5,29.92,NE,44,0.0,1.0,91,0.00,,,0.00,LWC V2.00 B2112,2013-07-28 15:41:00,
2013-07-28 11:46:00,76.7,73.5,29.92,NE,44,0.0,0.0,90,0.00,,,0.00,LWC V2.00 B2112,2013-07-28 15:46:00,
2013-07-28 11:51:00,77.0,74.2,29.92,NE,44,0.0,0.0,91,0.00,,,0.00,LWC V2.00 B2112,2013-07-28 15:51:00,
2013-07-28 11:56:00,77.4,73.2,29.92,NE,44,0.0,2.0,87,0.00,,,0.00,LWC V2.00 B2112,2013-07-28 15:56:00,
2013-07-28 12:01:00,77.4,73.2,29.92,NE,44,0.0,0.0,87,0.00,,,0.00,LWC V2.00 B2112,2013-07-28 16:01:00,
2013-07-28 12:06:00,77.7,73.8,29.92,NE,44,0.0,1.0,88,0.00,,,0.00,LWC V2.00 B2112,2013-07-28 16:06:00,
2013-07-28 12:11:00,77.9,73.0,29.92,NE,47,0.0,2.0,85,0.00,,,0.00,LWC V2.00 B2112,2013-07-28 16:11:00,
2013-07-28 12:16:00,78.3,73.1,29.92,NE,47,0.0,0.0,84,0.00,,,0.00,LWC V2.00 B2112,2013-07-28 16:16:00,
2013-07-28 12:21:00,78.6,74.0,29.92,NE,47,0.0,0.0,86,0.00,,,0.00,LWC V2.00 B2112,2013-07-28 16:21:00,
2013-07-28 12:26:00,78.8,74.2,29.92,NE,47,0.0,0.0,86,0.00,,,0.00,LWC V2.00 B2112,2013-07-28 16:26:00,
2013-07-28 12:31:00,78.6,73.3,29.92,NE,47,0.0,0.0,84,0.00,,,0.00,LWC V2.00 B2112,2013-07-28 16:31:00,
2013-07-28 12:36:00,79.0,73.0,29.92,NE,54,1.0,2.0,82,0.00,,,0.00,LWC V2.00 B2112,2013-07-28 16:36:00,
2013-07-28 12:41:00,80.3,73.9,29.92,ENE,58,0.0,0.0,81,0.00,,,0.00,LWC V2.00 B2112,2013-07-28 16:41:00,
2013-07-28 12:46:00,81.1,72.8,29.92,NE,55,0.0,0.0,76,0.00,,,0.00,LWC V2.00 B2112,2013-07-28 16:46:00,
2013-07-28 12:51:00,81.2,73.3,29.92,NE,55,0.0,0.0,77,0.00,,,0.00,LWC V2.00 B2112,2013-07-28 16:51:00,
2013-07-28 12:56:00,81.8,73.5,29.92,ENE,57,0.0,0.0,76,0.00,,,0.00,LWC V2.00 B2112,2013-07-28 16:56:00,
2013-07-28 13:01:00,81.8,71.9,29.92,NNE,31,0.0,3.0,72,0.00,,,0.00,LWC V2.00 B2112,2013-07-28 17:01:00,
2013-07-28 13:06:00,81.8,72.7,29.92,NNE,31,0.0,0.0,74,0.00,,,0.00,LWC V2.00 B2112,2013-07-28 17:06:00,
2013-07-28 13:11:00,81.8,73.9,29.91,NE,34,0.0,0.0,77,0.00,,,0.00,LWC V2.00 B2112,2013-07-28 17:11:00,
2013-07-28 13:17:00,81.4,74.2,29.91,NE,42,0.0,3.0,79,0.00,,,0.00,LWC V2.00 B2112,2013-07-28 17:17:00,
2013-07-28 13:22:00,82.0,72.1,29.91,NE,42,0.0,0.0,72,0.00,,,0.00,LWC V2.00 B2112,2013-07-28 17:22:00,
2013-07-28 13:27:00,81.6,73.3,29.91,NE,42,0.0,1.0,76,0.00,,,0.00,LWC V2.00 B2112,2013-07-28 17:27:00,
2013-07-28 13:32:00,82.4,72.0,29.91,NE,36,0.0,0.0,71,0.00,,,0.00,LWC V2.00 B2112,2013-07-28 17:32:00,
2013-07-28 13:37:00,82.2,71.8,29.91,NE,34,0.0,0.0,71,0.00,,,0.00,LWC V2.00 B2112,2013-07-28 17:37:00,
2013-07-28 13:42:00,82.0,73.3,29.89,NE,34,0.0,2.0,75,0.00,,,0.00,LWC V2.00 B2112,2013-07-28 17:42:00,
2013-07-28 13:47:00,81.8,73.5,29.89,NE,34,0.0,0.0,76,0.00,,,0.00,LWC V2.00 B2112,2013-07-28 17:47:00,
2013-07-28 13:52:00,82.0,73.7,29.89,NE,34,0.0,0.0,76,0.00,,,0.00,LWC V2.00 B2112,2013-07-28 17:52:00,
2013-07-28 13:57:00,81.8,74.6,29.90,NE,34,0.0,0.0,79,0.00,,,0.00,LWC V2.00 B2112,2013-07-28 17:57:00,
2013-07-28 14:02:00,81.4,73.1,29.90,NE,34,0.0,0.0,76,0.00,,,0.00,LWC V2.00 B2112,2013-07-28 18:02:00,
2013-07-28 14:07:00,81.6,73.3,29.90,NE,34,0.0,0.0,76,0.00,,,0.00,LWC V2.00 B2112,2013-07-28 18:07:00,
2013-07-28 14:12:00,81.4,72.7,29.90,NE,34,0.0,0.0,75,0.00,,,0.00,LWC V2.00 B2112,2013-07-28 18:12:00,
2013-07-28 14:17:00,81.6,73.7,29.90,NE,34,0.0,0.0,77,0.00,,,0.00,LWC V2.00 B2112,2013-07-28 18:17:00,
2013-07-28 14:22:00,82.2,73.5,29.90,NE,34,0.0,0.0,75,0.00,,,0.00,LWC V2.00 B2112,2013-07-28 18:22:00,
2013-07-28 14:27:00,82.6,73.8,29.89,NE,34,0.0,0.0,75,0.00,,,0.00,LWC V2.00 B2112,2013-07-28 18:27:00,
2013-07-28 14:32:00,82.6,73.4,29.89,NE,34,0.0,0.0,74,0.00,,,0.00,LWC V2.00 B2112,2013-07-28 18:32:00,
2013-07-28 14:37:00,83.0,73.0,29.89,NE,34,0.0,0.0,72,0.00,,,0.00,LWC V2.00 B2112,2013-07-28 18:37:00,
2013-07-28 14:55:00,83.6,70.6,29.89,NNE,33,0.0,0.0,65,0.00,,,0.00,LWC V2.00 B2112,2013-07-28 18:55:00,
2013-07-28 15:00:00,83.8,71.2,29.89,NE,34,0.0,1.0,66,0.00,,,0.00,LWC V2.00 B2112,2013-07-28 19:00:00,
2013-07-28 15:05:00,84.5,71.9,29.89,NE,38,0.0,0.0,66,0.00,,,0.00,LWC V2.00 B2112,2013-07-28 19:05:00,
2013-07-28 15:15:00,85.1,72.0,29.88,NE,38,0.0,2.0,65,0.00,,,0.00,LWC V2.00 B2112,2013-07-28 19:15:00,
2013-07-28 15:20:00,84.1,71.9,29.88,NE,38,0.0,0.0,67,0.00,,,0.00,LWC V2.00 B2112,2013-07-28 19:20:00,
2013-07-28 15:25:00,83.6,71.9,29.88,NE,38,0.0,0.0,68,0.00,,,0.00,LWC V2.00 B2112,2013-07-28 19:25:00,
2013-07-28 15:30:00,84.0,72.7,29.88,NE,38,0.0,1.0,69,0.00,,,0.00,LWC V2.00 B2112,2013-07-28 19:30:00,
2013-07-28 15:35:00,84.5,72.3,29.88,NE,38,0.0,0.0,67,0.00,,,0.00,LWC V2.00 B2112,2013-07-28 19:35:00,
2013-07-28 15:40:00,84.3,73.0,29.88,NE,38,0.0,1.0,69,0.00,,,0.00,LWC V2.00 B2112,2013-07-28 19:40:00,
2013-07-28 15:45:00,84.9,70.9,29.88,NNE,28,0.0,2.0,63,0.00,,,0.00,LWC V2.00 B2112,2013-07-28 19:45:00,
2013-07-28 15:50:00,85.3,71.2,29.88,NE,53,0.0,3.0,63,0.00,,,0.00,LWC V2.00 B2112,2013-07-28 19:50:00,
2013-07-28 15:55:00,85.3,73.5,29.88,NE,53,0.0,0.0,68,0.00,,,0.00,LWC V2.00 B2112,2013-07-28 19:55:00,
2013-07-28 16:00:00,84.9,73.1,29.88,NE,53,0.0,0.0,68,0.00,,,0.00,LWC V2.00 B2112,2013-07-28 20:00:00,
2013-07-28 16:05:00,84.1,72.4,29.88,NE,53,0.0,0.0,68,0.00,,,0.00,LWC V2.00 B2112,2013-07-28 20:05:00,
2013-07-28 16:10:00,84.3,71.2,29.88,NE,49,0.0,2.0,65,0.00,,,0.00,LWC V2.00 B2112,2013-07-28 20:10:00,
2013-07-28 16:15:00,84.5,72.7,29.88,NE,49,0.0,0.0,68,0.00,,,0.00,LWC V2.00 B2112,2013-07-28 20:15:00,
2013-07-28 16:20:00,84.1,69.2,29.88,NE,36,0.0,1.0,61,0.00,,,0.00,LWC V2.00 B2112,2013-07-28 20:20:00,
2013-07-28 16:25:00,84.0,70.0,29.88,NE,36,0.0,0.0,63,0.00,,,0.00,LWC V2.00 B2112,2013-07-28 20:25:00,
2013-07-28 16:30:00,83.8,70.3,29.88,NE,36,0.0,0.0,64,0.00,,,0.00,LWC V2.00 B2112,2013-07-28 20:30:00,
2013-07-28 16:35:00,83.6,72.3,29.88,NE,36,0.0,0.0,69,0.00,,,0.00,LWC V2.00 B2112,2013-07-28 20:35:00,
2013-07-28 16:40:00,83.2,70.6,29.88,NE,36,0.0,0.0,66,0.00,,,0.00,LWC V2.00 B2112,2013-07-28 20:40:00,
2013-07-28 16:45:00,83.0,71.3,29.88,NE,36,0.0,0.0,68,0.00,,,0.00,LWC V2.00 B2112,2013-07-28 20:45:00,
2013-07-28 16:50:00,82.8,71.6,29.88,NE,36,0.0,0.0,69,0.00,,,0.00,LWC V2.00 B2112,2013-07-28 20:50:00,
2013-07-28 16:55:00,82.6,72.2,29.88,NE,36,0.0,0.0,71,0.00,,,0.00,LWC V2.00 B2112,2013-07-28 20:55:00,
2013-07-28 17:00:00,82.4,72.8,29.88,NE,36,0.0,0.0,73,0.00,,,0.00,LWC V2.00 B2112,2013-07-28 21:00:00,
2013-07-28 17:05:00,82.2,73.5,29.88,NE,36,0.0,0.0,75,0.00,,,0.00,LWC V2.00 B2112,2013-07-28 21:05:00,
2013-07-28 17:10:00,81.8,72.3,29.88,NE,36,0.0,0.0,73,0.00,,,0.00,LWC V2.00 B2112,2013-07-28 21:10:00,
2013-07-28 17:15:00,81.4,72.3,29.88,NE,36,0.0,0.0,74,0.00,,,0.00,LWC V2.00 B2112,2013-07-28 21:15:00,
2013-07-28 17:20:00,81.2,72.1,29.88,NE,36,0.0,0.0,74,0.00,,,0.00,LWC V2.00 B2112,2013-07-28 21:20:00,
2013-07-28 17:25:00,81.2,72.9,29.88,NE,36,0.0,0.0,76,0.00,,,0.00,LWC V2.00 B2112,2013-07-28 21:25:00,
2013-07-28 17:30:00,81.1,73.2,29.88,NE,36,0.0,0.0,77,0.00,,,0.00,LWC V2.00 B2112,2013-07-28 21:30:00,
2013-07-28 17:35:00,80.9,71.4,29.88,NE,36,0.0,0.0,73,0.00,,,0.00,LWC V2.00 B2112,2013-07-28 21:35:00,
2013-07-28 17:40:00,80.9,72.2,29.88,NE,36,0.0,0.0,75,0.00,,,0.00,LWC V2.00 B2112,2013-07-28 21:40:00,
2013-07-28 17:45:00,80.9,72.6,29.88,NE,36,0.0,0.0,76,0.00,,,0.00,LWC V2.00 B2112,2013-07-28 21:45:00,
2013-07-28 17:50:00,80.9,73.0,29.88,NE,36,0.0,0.0,77,0.00,,,0.00,LWC V2.00 B2112,2013-07-28 21:50:00,
2013-07-28 17:55:00,80.9,73.0,29.88,NE,36,0.0,0.0,77,0.00,,,0.00,LWC V2.00 B2112,2013-07-28 21:55:00,
2013-07-28 18:00:00,80.7,72.4,29.88,NE,36,0.0,0.0,76,0.00,,,0.00,LWC V2.00 B2112,2013-07-28 22:00:00,
2013-07-28 18:05:00,80.7,70.8,29.88,NE,36,0.0,0.0,72,0.00,,,0.00,LWC V2.00 B2112,2013-07-28 22:05:00,
2013-07-28 18:10:00,80.7,72.4,29.88,NE,36,0.0,0.0,76,0.00,,,0.00,LWC V2.00 B2112,2013-07-28 22:10:00,
2013-07-28 18:15:00,80.5,72.2,29.88,NE,36,0.0,0.0,76,0.00,,,0.00,LWC V2.00 B2112,2013-07-28 22:15:00,
2013-07-28 18:20:00,80.3,72.0,29.88,NE,36,0.0,0.0,76,0.00,,,0.00,LWC V2.00 B2112,2013-07-28 22:20:00,
2013-07-28 18:25:00,80.3,72.4,29.88,NE,36,0.0,0.0,77,0.00,,,0.00,LWC V2.00 B2112,2013-07-28 22:25:00,
2013-07-28 18:30:00,80.3,71.6,29.88,NE,36,0.0,0.0,75,0.00,,,0.00,LWC V2.00 B2112,2013-07-28 22:30:00,
2013-07-28 18:35:00,80.3,72.0,29.88,NE,36,0.0,1.0,76,0.00,,,0.00,LWC V2.00 B2112,2013-07-28 22:35:00,
2013-07-28 18:40:00,80.3,71.6,29.88,NE,36,0.0,0.0,75,0.00,,,0.00,LWC V2.00 B2112,2013-07-28 22:40:00,
2013-07-28 18:45:00,80.5,72.2,29.88,NE,36,0.0,0.0,76,0.00,,,0.00,LWC V2.00 B2112,2013-07-28 22:45:00,
2013-07-28 18:50:00,80.7,72.4,29.88,NE,36,0.0,0.0,76,0.00,,,0.00,LWC V2.00 B2112,2013-07-28 22:50:00,
2013-07-28 18:55:00,80.9,73.0,29.88,NE,36,0.0,0.0,77,0.00,,,0.00,LWC V2.00 B2112,2013-07-28 22:55:00,
2013-07-28 19:00:00,80.7,72.8,29.88,NE,36,0.0,0.0,77,0.00,,,0.00,LWC V2.00 B2112,2013-07-28 23:00:00,
2013-07-28 19:05:00,80.5,71.8,29.88,NE,36,0.0,0.0,75,0.00,,,0.00,LWC V2.00 B2112,2013-07-28 23:05:00,
2013-07-28 19:10:00,80.3,70.8,29.89,NE,36,0.0,0.0,73,0.00,,,0.00,LWC V2.00 B2112,2013-07-28 23:10:00,
2013-07-28 19:15:00,80.3,71.6,29.89,NE,36,0.0,0.0,75,0.00,,,0.00,LWC V2.00 B2112,2013-07-28 23:15:00,
2013-07-28 19:20:00,80.1,72.6,29.89,NE,36,0.0,0.0,78,0.00,,,0.00,LWC V2.00 B2112,2013-07-28 23:20:00,
2013-07-28 19:25:00,79.9,71.6,29.89,NE,36,0.0,0.0,76,0.00,,,0.00,LWC V2.00 B2112,2013-07-28 23:25:00,
2013-07-28 19:30:00,79.6,71.0,29.89,NE,36,0.0,0.0,75,0.00,,,0.00,LWC V2.00 B2112,2013-07-28 23:30:00,
2013-07-28 19:35:00,79.4,71.2,29.89,NE,36,0.0,0.0,76,0.00,,,0.00,LWC V2.00 B2112,2013-07-28 23:35:00,
2013-07-28 19:40:00,79.2,71.3,29.90,NE,36,0.0,0.0,77,0.00,,,0.00,LWC V2.00 B2112,2013-07-28 23:40:00,
2013-07-28 19:45:00,79.0,72.3,29.90,NE,36,0.0,0.0,80,0.00,,,0.00,LWC V2.00 B2112,2013-07-28 23:45:00,
2013-07-28 19:50:00,78.8,72.5,29.90,NE,36,0.0,0.0,81,0.00,,,0.00,LWC V2.00 B2112,2013-07-28 23:50:00,
2013-07-28 19:55:00,78.5,72.2,29.91,NE,36,0.0,0.0,81,0.00,,,0.00,LWC V2.00 B2112,2013-07-28 23:55:00,
2013-07-28 20:00:00,78.1,71.8,29.91,NE,36,0.0,0.0,81,0.00,,,0.00,LWC V2.00 B2112,2013-07-29 00:00:00,
2013-07-28 20:05:00,77.9,71.9,29.91,NE,36,0.0,0.0,82,0.00,,,0.00,LWC V2.00 B2112,2013-07-29 00:05:00,
2013-07-28 20:10:00,77.6,71.7,29.91,NE,36,0.0,0.0,82,0.00,,,0.00,LWC V2.00 B2112,2013-07-29 00:10:00,
2013-07-28 20:15:00,77.4,71.5,29.91,NE,36,0.0,0.0,82,0.00,,,0.00,LWC V2.00 B2112,2013-07-29 00:15:00,
2013-07-28 20:20:00,77.2,71.6,29.91,NE,36,0.0,0.0,83,0.00,,,0.00,LWC V2.00 B2112,2013-07-29 00:20:00,
2013-07-28 20:25:00,77.0,71.8,29.91,NE,36,0.0,0.0,84,0.00,,,0.00,LWC V2.00 B2112,2013-07-29 00:25:00,
2013-07-28 20:30:00,76.8,71.6,29.91,NE,36,0.0,0.0,84,0.00,,,0.00,LWC V2.00 B2112,2013-07-29 00:30:00,
2013-07-28 20:35:00,76.5,71.6,29.91,NE,36,0.0,0.0,85,0.00,,,0.00,LWC V2.00 B2112,2013-07-29 00:35:00,
2013-07-28 20:40:00,76.3,71.1,29.91,NE,36,0.0,0.0,84,0.00,,,0.00,LWC V2.00 B2112,2013-07-29 00:40:00,
2013-07-28 20:45:00,76.0,71.2,29.91,NE,36,0.0,0.0,85,0.00,,,0.00,LWC V2.00 B2112,2013-07-29 00:45:00,
2013-07-28 20:50:00,75.8,71.0,29.91,NE,36,0.0,0.0,85,0.00,,,0.00,LWC V2.00 B2112,2013-07-29 00:50:00,
2013-07-28 20:55:00,75.6,71.1,29.92,NE,36,0.0,0.0,86,0.00,,,0.00,LWC V2.00 B2112,2013-07-29 00:55:00,
2013-07-28 21:00:00,75.4,70.9,29.92,NE,36,0.0,0.0,86,0.00,,,0.00,LWC V2.00 B2112,2013-07-29 01:00:00,
2013-07-28 21:05:00,75.3,71.2,29.92,NE,36,0.0,0.0,87,0.00,,,0.00,LWC V2.00 B2112,2013-07-29 01:05:00,
2013-07-28 21:10:00,75.1,71.0,29.92,NE,36,0.0,0.0,87,0.00,,,0.00,LWC V2.00 B2112,2013-07-29 01:10:00,
2013-07-28 21:15:00,74.9,71.1,29.92,NE,36,0.0,0.0,88,0.00,,,0.00,LWC V2.00 B2112,2013-07-29 01:15:00,
2013-07-28 21:20:00,74.7,70.9,29.92,NE,36,0.0,0.0,88,0.00,,,0.00,LWC V2.00 B2112,2013-07-29 01:20:00,
2013-07-28 21:25:00,74.6,70.8,29.92,NE,36,0.0,0.0,88,0.00,,,0.00,LWC V2.00 B2112,2013-07-29 01:25:00,
2013-07-28 21:30:00,74.4,70.6,29.92,NE,36,0.0,0.0,88,0.00,,,0.00,LWC V2.00 B2112,2013-07-29 01:30:00,
2013-07-28 21:35:00,74.4,70.9,29.92,NE,36,0.0,0.0,89,0.00,,,0.00,LWC V2.00 B2112,2013-07-29 01:35:00,
2013-07-28 21:40:00,74.2,71.1,29.92,NE,36,0.0,0.0,90,0.00,,,0.00,LWC V2.00 B2112,2013-07-29 01:40:00,
2013-07-28 21:45:00,74.0,70.9,29.92,NE,36,0.0,0.0,90,0.00,,,0.00,LWC V2.00 B2112,2013-07-29 01:45:00,
2013-07-28 21:50:00,73.9,70.8,29.92,NE,36,0.0,0.0,90,0.00,,,0.00,LWC V2.00 B2112,2013-07-29 01:50:00,
2013-07-28 21:55:00,73.9,70.8,29.93,NE,36,0.0,0.0,90,0.00,,,0.00,LWC V2.00 B2112,2013-07-29 01:55:00,
2013-07-28 22:00:00,73.7,70.9,29.93,NE,36,0.0,0.0,91,0.00,,,0.00,LWC V2.00 B2112,2013-07-29 02:00:00,
2013-07-28 22:05:00,73.7,70.9,29.93,NE,36,0.0,0.0,91,0.00,,,0.00,LWC V2.00 B2112,2013-07-29 02:05:00,
2013-07-28 22:10:00,73.5,71.0,29.93,NE,36,0.0,0.0,92,0.00,,,0.00,LWC V2.00 B2112,2013-07-29 02:10:00,
2013-07-28 22:15:00,73.5,71.0,29.93,NE,36,0.0,0.0,92,0.00,,,0.00,LWC V2.00 B2112,2013-07-29 02:15:00,
2013-07-28 22:20:00,73.3,70.8,29.93,NE,36,0.0,0.0,92,0.00,,,0.00,LWC V2.00 B2112,2013-07-29 02:20:00,
2013-07-28 22:25:00,73.2,70.7,29.94,NE,36,0.0,0.0,92,0.00,,,0.00,LWC V2.00 B2112,2013-07-29 02:25:00,
2013-07-28 22:30:00,73.2,70.7,29.94,NE,36,0.0,0.0,92,0.00,,,0.00,LWC V2.00 B2112,2013-07-29 02:30:00,
2013-07-28 22:35:00,73.0,70.5,29.94,NE,36,0.0,0.0,92,0.00,,,0.00,LWC V2.00 B2112,2013-07-29 02:35:00,
2013-07-28 22:40:00,73.0,70.5,29.94,NE,36,0.0,0.0,92,0.00,,,0.00,LWC V2.00 B2112,2013-07-29 02:40:00,
2013-07-28 22:45:00,73.0,70.5,29.94,NE,36,0.0,0.0,92,0.00,,,0.00,LWC V2.00 B2112,2013-07-29 02:45:00,
2013-07-28 22:50:00,72.8,70.3,29.94,NE,36,0.0,0.0,92,0.00,,,0.00,LWC V2.00 B2112,2013-07-29 02:50:00,
2013-07-28 22:55:00,72.8,70.3,29.94,NE,36,0.0,0.0,92,0.00,,,0.00,LWC V2.00 B2112,2013-07-29 02:55:00,
2013-07-28 23:00:00,72.7,70.6,29.94,NE,36,0.0,0.0,93,0.00,,,0.00,LWC V2.00 B2112,2013-07-29 03:00:00,
2013-07-28 23:05:00,72.7,70.6,29.94,NE,36,0.0,0.0,93,0.00,,,0.00,LWC V2.00 B2112,2013-07-29 03:05:00,
2013-07-28 23:10:00,72.7,70.6,29.94,NE,36,0.0,0.0,93,0.00,,,0.00,LWC V2.00 B2112,2013-07-29 03:10:00,
2013-07-28 23:15:00,72.7,70.9,29.94,NE,36,0.0,0.0,94,0.00,,,0.00,LWC V2.00 B2112,2013-07-29 03:15:00,
2013-07-28 23:20:00,72.8,71.0,29.94,NE,36,0.0,0.0,94,0.00,,,0.00,LWC V2.00 B2112,2013-07-29 03:20:00,
2013-07-28 23:25:00,72.8,71.0,29.94,NE,36,0.0,0.0,94,0.00,,,0.00,LWC V2.00 B2112,2013-07-29 03:25:00,
2013-07-28 23:30:00,72.8,71.0,29.94,NE,36,0.0,0.0,94,0.00,,,0.00,LWC V2.00 B2112,2013-07-29 03:30:00,
2013-07-28 23:35:00,73.0,71.5,29.94,NE,36,0.0,0.0,95,0.00,,,0.00,LWC V2.00 B2112,2013-07-29 03:35:00,
2013-07-28 23:40:00,73.0,71.5,29.95,NE,36,0.0,0.0,95,0.00,,,0.00,LWC V2.00 B2112,2013-07-29 03:40:00,
2013-07-28 23:45:00,73.0,71.5,29.95,NE,36,0.0,0.0,95,0.00,,,0.00,LWC V2.00 B2112,2013-07-29 03:45:00,
2013-07-28 23:50:00,73.2,71.7,29.95,NE,36,0.0,0.0,95,0.00,,,0.00,LWC V2.00 B2112,2013-07-29 03:50:00,
2013-07-28 23:55:00,73.2,72.0,29.94,NE,36,0.0,0.0,96,0.00,,,0.00,LWC V2.00 B2112,2013-07-29 03:55:00,